Hourly Data Report for May 26, 2021

WESTERN HEAD
NOVA SCOTIA
Current Station Operator: ECCC - MSC

43°59'24.070" N
64°39'51.008" W
10.10 m
8206240
71411
WWE

Download Data

Hourly Data (May 2021)
Hourly Data Report for May 26, 2021
TIME
LST
Temp Definition
°C
Dew Point Definition
°C
Rel Hum Definition
%
Precip. Amount Definition
mm

Wind Dir Definition
10's deg

Wind Spd Definition
km/h
Visibility Definition
km
Stn Press Definition
kPa
Hmdx Definition


Wind Chill Definition


Weather Definition


00:00 7.2 6.7 97 0.0 18 14   101.57     LegendNANA
01:00 7.4 7.0 97 0.0 19 21   101.53     LegendNANA
02:00 7.8 7.0 95 0.0 21 5   101.51     LegendNANA
03:00 9.8 7.6 86 0.0 22 18   101.45     LegendNANA
04:00 8.1 7.3 95 0.0 20 24   101.42     LegendNANA
05:00 9.2 8.2 93 0.0 21 22   101.38     LegendNANA
06:00 9.7 8.5 92 0.0 21 23   101.37     LegendNANA
07:00 8.5 7.2 91 0.0 20 16   101.40     LegendNANA
08:00 10.7 8.5 86 0.0 21 15   101.38     LegendNANA
09:00 10.7 8.2 84 0.0 20 28   101.34     LegendNANA
10:00 11.9 8.9 82 0.0 20 31   101.27     LegendNANA
11:00 10.6 8.1 85 0.0 20 31   101.27     LegendNANA
12:00 10.9 8.8 87 0.0 19 36   101.23     LegendNANA
13:00 11.3 9.3 87 0.0 20 36   101.19     LegendNANA
14:00 11.6 9.3 86 0.0 20 37   101.10     LegendNANA
15:00 10.8 9.1 89 0.0 20 37   101.03     LegendNANA
16:00 10.3 9.3 94 0.0 19 39   100.95     LegendNANA
17:00 9.2 8.8 97 0.0 20 38   100.91     LegendNANA
18:00 8.2 8.1 100 0.0 20 35   100.87     LegendNANA
19:00 7.9 7.9 100 0.0 20 32   100.87     LegendNANA
20:00 7.8 7.8 100 0.0 20 31   100.84     LegendNANA
21:00 7.8 LegendMM LegendMM 0.0 20 23   100.86     LegendNANA
22:00 8.4 LegendMM LegendMM 0.0 20 19   100.82     LegendNANA
23:00 8.2 LegendMM LegendMM 0.0 20 23   100.79     LegendNANA

Notes on Data Quality.

Legend

  • E = Estimated
  • M = Missing
  • NA = Not Available*
  • [empty] = Indicates an unobserved value
Date modified: